Location: Poughquag
(41.6090°N, 73.6820°W)
Time: 14:52:51
(UTC-04:00)

Vanguard 2 - Pass Details

Date: 31 May 2020
Orbit: 552 x 2938 km, 32.9° (Epoch: 06 July)

Event Time Altitude Azimuth Distance (km) Brightness Sun altitude
Rises 00:07:16 0° 267° (W) 4,260 11.4 -25.6°
Reaches altitude 10° 00:11:12 10° 256° (WSW) 2,876 10.4 -25.7°
Enters shadow 00:13:15 17° 244° (WSW) 2,226 9.7 -25.8°
Maximum altitude 00:16:20 24° 204° (SSW) 1,601 - -25.9°
Drops below altitude 10° 00:20:09 10° 150° (SSE) 2,074 - -26.0°
Sets 00:22:30 0° 135° (SE) 2,838 - -26.0°
